Port Orchard, Washington, United States (98366)
Lat: 47.54N, Lon: 122.64W
Wx Zone: WAZ508
Local Info
Past Weather Observations for Sunday, October 19, 2014

NOTE: This archive is for the closest National Weather Service station to Port Orchard. Information may differ from the station used for current weather conditions.

Click here for Long-term Archive

Time Weather Temperature Dewpoint Humidity Pressure Winds Precip Visibility
23:55
Mostly Cloudy
57°F / 14°C 55°F / 13°C 94% 29.71 in
(1006 mb)
S 3.5 mph
(S 6 kph)
- 10SM
23:35
Mostly Cloudy
57°F / 14°C 55°F / 13°C 94% 29.71 in
(1006 mb)
SSE 4.6 mph
(SSE 7 kph)
- 10SM
23:15
Overcast
57°F / 14°C 55°F / 13°C 94% 29.74 in
(1007 mb)
SW 5.8 mph
(SW 9 kph)
- 10SM
22:55
Overcast
59°F / 15°C 55°F / 13°C 88% 29.71 in
(1006 mb)
SW 6.9 mph
(SW 11 kph)
- 10SM
22:35
Overcast
59°F / 15°C 55°F / 13°C 88% 29.71 in
(1006 mb)
SSW 5.8 mph
(SSW 9 kph)
- 10SM
22:15
Overcast
59°F / 15°C 55°F / 13°C 88% 29.71 in
(1006 mb)
SSW 8.1 mph
(SSW 13 kph)
- 10SM
21:55
Overcast
59°F / 15°C 55°F / 13°C 88% 29.71 in
(1006 mb)
SW 5.8 mph
(SW 9 kph)
- 10SM
21:35
Overcast
59°F / 15°C 55°F / 13°C 88% 29.71 in
(1006 mb)
SSW 9.2 mph
(SSW 15 kph)
- 10SM
21:15
Overcast
59°F / 15°C 55°F / 13°C 88% 29.71 in
(1006 mb)
SW 9.2 mph
(SW 15 kph)
- 10SM
20:55
Overcast
59°F / 15°C 55°F / 13°C 88% 29.71 in
(1006 mb)
SW 6.9 mph
(SW 11 kph)
- 10SM
20:35
Overcast
59°F / 15°C 55°F / 13°C 88% 29.71 in
(1006 mb)
SW 9.2 mph
(SW 15 kph)
- 10SM
20:15
Mostly Cloudy
59°F / 15°C 55°F / 13°C 88% 29.71 in
(1006 mb)
SSW 10.4 mph
(SSW 17 kph)
- 10SM
19:55
Partly Cloudy
59°F / 15°C 55°F / 13°C 88% 29.71 in
(1006 mb)
SW 8.1 mph
(SW 13 kph)
- 10SM
19:35
Mostly Cloudy
59°F / 15°C 57°F / 14°C 94% 29.71 in
(1006 mb)
SW 9.2 mph
(SW 15 kph)
- 10SM
19:15
Overcast
61°F / 16°C 57°F / 14°C 88% 29.74 in
(1007 mb)
SSW 11.5 mph
(SSW 19 kph)
- 10SM
18:55
Overcast
61°F / 16°C 57°F / 14°C 88% 29.74 in
(1007 mb)
SW 11.5 mph
(SW 19 kph)
- 10SM
18:35
Overcast
61°F / 16°C 57°F / 14°C 88% 29.71 in
(1006 mb)
SW 10.4 mph
(SW 17 kph)
- 10SM
18:15
Overcast
61°F / 16°C 57°F / 14°C 88% 29.71 in
(1006 mb)
SW 11.5 mph
(SW 19 kph)
- 10SM
17:55
Mostly Cloudy
63°F / 17°C 57°F / 14°C 83% 29.71 in
(1006 mb)
SW 12.7 mph
(SW 20 kph)
- 10SM
17:35
Overcast
63°F / 17°C 57°F / 14°C 83% 29.71 in
(1006 mb)
SW 11.5 mph
(SW 19 kph)
- 10SM
17:15
Mostly Cloudy
61°F / 16°C 57°F / 14°C 88% 29.71 in
(1006 mb)
SSE 6.9 mph
(SSE 11 kph)
- 10SM
16:55
Clear
63°F / 17°C 55°F / 13°C 77% 29.71 in
(1006 mb)
SSE 9.2 mph
(SSE 15 kph)
- 10SM
16:35
Clear
63°F / 17°C 55°F / 13°C 77% 29.71 in
(1006 mb)
SW 9.2 mph
(SW 15 kph)
- 10SM
16:15
Clear
64°F / 18°C 57°F / 14°C 78% 29.71 in
(1006 mb)
SSE 9.2 mph
(SSE 15 kph)
- 10SM
15:55
Partly Cloudy
66°F / 19°C 57°F / 14°C 73% 29.71 in
(1006 mb)
SW 11.5 mph
(SW 19 kph)
- 10SM
15:35
Partly Cloudy
66°F / 19°C 57°F / 14°C 73% 29.71 in
(1006 mb)
SW 10.4 mph
(SW 17 kph)
- 10SM
15:15
Partly Cloudy
66°F / 19°C 57°F / 14°C 73% 29.71 in
(1006 mb)
SW 9.2 mph
(SW 15 kph)
- 10SM
14:55
Mostly Cloudy
68°F / 20°C 57°F / 14°C 69% 29.71 in
(1006 mb)
SW 9.2 mph
(SW 15 kph)
- 10SM
14:35
Mostly Cloudy
70°F / 21°C 59°F / 15°C 69% 29.71 in
(1006 mb)
SSW 12.7 mph
(SSW 20 kph)
- 10SM
14:15
Mostly Cloudy
66°F / 19°C 57°F / 14°C 73% 29.71 in
(1006 mb)
SW 12.7 mph
(SW 20 kph)
- 10SM
13:55
Mostly Cloudy
66°F / 19°C 57°F / 14°C 73% 29.74 in
(1007 mb)
SW 13.8 mph
(SW 22 kph)
- 10SM
13:35
Overcast
68°F / 20°C 57°F / 14°C 69% 29.74 in
(1007 mb)
SW 12.7 mph
(SW 20 kph)
- 10SM
13:15
Partly Cloudy
70°F / 21°C 57°F / 14°C 64% 29.74 in
(1007 mb)
SSE 13.8 mph
(SSE 22 kph)
- 10SM
12:55
Clear
70°F / 21°C 57°F / 14°C 64% 29.74 in
(1007 mb)
S 15 mph
(S 24 kph)
- 10SM
12:35
Clear
70°F / 21°C 57°F / 14°C 64% 29.74 in
(1007 mb)
S 21.9 mph
(S 35 kph)
- 10SM
12:15
Clear
70°F / 21°C 57°F / 14°C 64% 29.74 in
(1007 mb)
S 19.6 mph
(S 32 kph)
- 10SM
11:55
Clear
70°F / 21°C 57°F / 14°C 64% 29.74 in
(1007 mb)
S 16.1 mph
(S 26 kph)
- 10SM
11:35
Clear
70°F / 21°C 59°F / 15°C 69% 29.77 in
(1008 mb)
S 13.8 mph
(S 22 kph)
- 10SM
11:15
Clear
70°F / 21°C 61°F / 16°C 73% 29.77 in
(1008 mb)
S 16.1 mph
(S 26 kph)
- 10SM
10:55
Partly Cloudy
68°F / 20°C 61°F / 16°C 78% 29.77 in
(1008 mb)
SSE 12.7 mph
(SSE 20 kph)
- 10SM
10:35
Partly Cloudy
66°F / 19°C 61°F / 16°C 83% 29.77 in
(1008 mb)
SSE 15 mph
(SSE 24 kph)
- 10SM
10:15
Partly Cloudy
64°F / 18°C 61°F / 16°C 88% 29.77 in
(1008 mb)
SSE 12.7 mph
(SSE 20 kph)
- 10SM
09:55
Partly Cloudy
63°F / 17°C 59°F / 15°C 88% 29.77 in
(1008 mb)
SSE 11.5 mph
(SSE 19 kph)
- 10SM
09:35
Clear
63°F / 17°C 59°F / 15°C 88% 29.77 in
(1008 mb)
SW 13.8 mph
(SW 22 kph)
- 10SM
09:15
Partly Cloudy
59°F / 15°C 57°F / 14°C 94% 29.77 in
(1008 mb)
SW 9.2 mph
(SW 15 kph)
- 10SM
08:55
Partly Cloudy
57°F / 14°C 57°F / 14°C 100% 29.77 in
(1008 mb)
SSE 5.8 mph
(SSE 9 kph)
- 10SM
08:35
Partly Cloudy
57°F / 14°C 57°F / 14°C 100% 29.77 in
(1008 mb)
SSE 5.8 mph
(SSE 9 kph)
- 10SM
08:15
Overcast
55°F / 13°C 54°F / 12°C 94% 29.77 in
(1008 mb)
SSE 5.8 mph
(SSE 9 kph)
- 1/4SM
07:55
Overcast
55°F / 13°C 54°F / 12°C 94% 29.77 in
(1008 mb)
SSE 4.6 mph
(SSE 7 kph)
- M1/4SM
07:35
Overcast
55°F / 13°C 55°F / 13°C 100% 29.74 in
(1007 mb)
SW 4.6 mph
(SW 7 kph)
- M1/4SM
07:15
Overcast
55°F / 13°C 55°F / 13°C 100% 29.77 in
(1008 mb)
SW 6.9 mph
(SW 11 kph)
- M1/4SM
06:55
Overcast
55°F / 13°C 55°F / 13°C 100% 29.74 in
(1007 mb)
Calm - 3/4SM
06:35
Mostly Cloudy
55°F / 13°C 54°F / 12°C 94% 29.74 in
(1007 mb)
SW 4.6 mph
(SW 7 kph)
- 5SM
06:15
Overcast
55°F / 13°C 55°F / 13°C 100% 29.77 in
(1008 mb)
SW 3.5 mph
(SW 6 kph)
- 9SM
05:55
Overcast
55°F / 13°C 54°F / 12°C 94% 29.74 in
(1007 mb)
Calm - 5SM
05:35
Overcast
55°F / 13°C 55°F / 13°C 100% 29.77 in
(1008 mb)
S 3.5 mph
(S 6 kph)
- 8SM
05:15
Overcast
54°F / 12°C 54°F / 12°C 100% 29.77 in
(1008 mb)
Calm - 10SM
04:55
Overcast
54°F / 12°C 52°F / 11°C 94% 29.77 in
(1008 mb)
Calm - 6SM
04:35
Overcast
54°F / 12°C 54°F / 12°C 100% 29.77 in
(1008 mb)
Calm - 5SM
04:15
Overcast
52°F / 11°C 50°F / 10°C 94% 29.77 in
(1008 mb)
Calm - 3/4SM
03:55
Partly Cloudy
52°F / 11°C 50°F / 10°C 94% 29.77 in
(1008 mb)
Calm - 9SM
03:35
Obscured
52°F / 11°C 52°F / 11°C 100% 29.77 in
(1008 mb)
Calm - 1/4SM
03:15
Partly Cloudy
54°F / 12°C 54°F / 12°C 100% 29.8 in
(1009 mb)
Calm - 10SM
02:55
Mostly Cloudy
54°F / 12°C 54°F / 12°C 100% 29.8 in
(1009 mb)
Calm - 10SM
02:35
Overcast
54°F / 12°C 54°F / 12°C 100% 29.8 in
(1009 mb)
Calm - 10SM
02:15
Overcast
55°F / 13°C 55°F / 13°C 100% 29.8 in
(1009 mb)
Calm - 10SM
01:55
Overcast
55°F / 13°C 55°F / 13°C 100% 29.8 in
(1009 mb)
Calm - 10SM
01:35
Overcast
55°F / 13°C 55°F / 13°C 100% 29.8 in
(1009 mb)
Calm - 10SM
01:15
Overcast
54°F / 12°C 54°F / 12°C 100% 29.8 in
(1009 mb)
Calm - 10SM
00:55
Overcast
54°F / 12°C 54°F / 12°C 100% 29.83 in
(1010 mb)
Calm - 3SM
00:35
Mostly Cloudy
52°F / 11°C 50°F / 10°C 94% 29.83 in
(1010 mb)
Calm - 10SM
00:15
Mostly Cloudy
52°F / 11°C 50°F / 10°C 94% 29.83 in
(1010 mb)
Calm - 7SM
Time Weather Temperature Dewpoint Humidity Pressure Winds Precip Visibility


Weather for websites

WeatherForYou.com, LLC is not responsible for any damages or problems caused by this service. Current weather conditions are obtained from the closest station including government and personal stations which may have varying degrees of accuracy. Weather forecasts are derived from the NOAA NDFD. Like all things, this site belongs to Jesus Christ... He just trusts me to maintain it. If you have any questions or comments email webmaster@weatherforyou.com

Copyright © 2014, WeatherForYou.com LLC. All rights reserved.